{"data":{"norad_id":58320,"epoch":"2026-09-19T22:23:25.977120Z","epoch_age_seconds":63293,"freshness":"FRESH","line1":"1 58320U 23174BS  26262.93293955  .00022110  00000+0  34596-3 0  9993","line2":"2 58320  97.3809 353.9034 0006095 144.0305 216.1359 15.53752745160299","mean_motion":15.53752745,"eccentricity":0.0006095,"inclination_deg":97.3809,"raan_deg":353.9034,"arg_perigee_deg":144.0305,"mean_anomaly_deg":216.1359,"bstar":0.00034596,"rev_number":16029,"period_min":92.678838678415,"perigee_km":401.64587303304,"apogee_km":409.91546867381,"semimajor_km":6783.9176708534,"source":"CELESTRAK","updated_at":"2026-09-20T09:00:34.710496Z"}}